TITAN 3C TRANSTAGE DEB, 28840

Orbit data source: Space-Track

TITAN 3C TRANSTAGE DEB, 28840 is space debris in HEO originally from a launch on Tue, 21 Dec 1965 UTC launched from the Air Force Eastern Test Range (AFETR). Debris objects in space refer to the collection of defunct objects orbiting the Earth. Examples of debris include non-operational satellites, rocket bodies, and fragments generated from explosions, collisions, or faulty payload assembly.

Loading next visibility...
Identifier
28840, 1965-108CS
Orbit
HEO
Country
Flag of USUS
Related business
Manufacturer
Unknown
Mission
Spacecraft
Bus & Motor
Unknown
Mass
Unknown
Launch date (UTC)
1965-12-21 (60 years ago)
Launch vehicle
Unknown
Launch site
Air Force Eastern Test Range (AFETR)
Object type
Payload
Rocket body
Debris
Shape & HBR
Unknown shape, 1.1 m
Radar Cross Section
Small (<0.1 m²)

Expand to show TLE details & history
Last TLE update: 1 month ago

TLE from 1 month ago
0 TITAN 3C TRANSTAGE DEB
1 28840U 65108CS  26095.10769780  .00001841  00000-0  93875-2 0  9990
2 28840  26.7955 326.2525 6690032 206.2693  93.0912  2.89249150113781
Epoch: 2026-04-05T02:35Z
TLE epoch observation values (Epoch: 2026-04-05T02:35:05.089Z)
Latitude
-0.00007°
Longitude
94.05665°
Altitude
22,335.338 km
Speed
2.934 km/s
True Right ascension
21h 44m 58s
True Declination
0° 00' 00"
Sunlit
Object was in daylight at epoch
Visualization orbit readout
Latitude
Unknown
Longitude
Unknown
Altitude
Unknown
Speed
Unknown
Apparent Right ascension
Unknown
Apparent Declination
Unknown
Sunlit
N/A
Visualization observer readout
Local Sidereal Time
00:49:58
Azimuth
Unknown
Elevation
Unknown
Doppler factor
Unknown
Orbital elements
Apogee altitude
28,355.693 km
Perigee altitude
510.278 km
Semi-major axis
20,811.123 km
Eccentricity
0.669
Inclination
26.7955°
RAAN
326.2525°
Arg. of periapsis
206.2693°
True anomaly
153.69753°
Mean anomaly
93.0912°
Eccentric anomaly
124.63108°
Mean motion
0.72294 °/min
Orbital period
497.97 mins
BSTAR
0.0093875
Loading maneuver chart data...
Computing Atmospheric mass density...

Documentation

Showing up to 5 results
|